Regional Weather Roundup
Issued by NWS Wakefield, VA

Home | Current Version | Previous Version | Text Only | Print | Product List | Glossary Off
Versions: 1 2 3 4 5 6 7 8 9 10 11 12 13 14 15 16 17 18 19 20 21 22 23 24 25 26 27 28

000
ASUS41 KAKQ 290315
RWRAKQ

REGIONAL WEATHER ROUNDUP
NATIONAL WEATHER SERVICE WAKEFIELD VA
1100 PM EDT THU JUL 28 2016

Note: "fair" indicates few or no clouds below 12,000 feet with no
significant weather and/or obstructions to visibility. * = Denotes
station may not report precipitation (e.g., rain,snow,etc.),
thunder or fog.

VAZ042-051-052>054-056-290400-
NORTHERN VIRGINIA

CITY           SKY/WX    TMP DP  RH WIND       PRES   REMARKS
WASH NATIONAL  LGT RAIN  78  74  87 N8        29.85S
DULLES         RAIN      74  73  97 S3        29.86F FOG
FORT BELVOIR   LGT RAIN  76  74  94 N3        29.84S
QUANTICO       LGT RAIN  78  75  90 E8        29.83F
FREDERICKSBRG* CLOUDY    76  76 100 NE3       29.82F
STAFFORD*      RAIN      74  73  94 N5        29.87F
WARRENTON      CLOUDY    75  70  84 NW6       29.85F
CULPEPER*      CLOUDY    74  73  99 CALM      29.86F
MANASSAS*      CLOUDY    75  73  94 NE7       29.84F
LEESBURG*      CLOUDY    75  75 100 CALM      29.88F
WINCHESTER     RAIN      72  70  94 CALM      29.88F
FRONT ROYAL*   CLOUDY    70  70 100 CALM      29.88F
LURAY*         CLOUDY   N/A N/A N/A NE5       29.89F
$$

VAZ048-049-060>072-079>083-290400-
CENTRAL AND SOUTH CENTRAL VIRGINIA

CITY           SKY/WX    TMP DP  RH WIND       PRES   REMARKS
RICHMOND       TSTM      76  75  97 NE9       29.83R
CHESTERFIELD*  CLOUDY    79  64  61 N3        29.83R THUNDER
PETERSBURG*    CLOUDY    85  76  74 S3        29.81R HX  95
HANOVER        TSTM      75  73  93 N7        29.83S FOG
TAPPAHANNOCK*  TSTM      76  76 100 E6        29.85R
QUINTON*       CLOUDY    78  76  95 SW9G25    29.82R FOG
CHARLOTTSVILLE CLOUDY    76  68  76 NE13      29.86F
GORDONSVILLE*  CLOUDY    73  72  96 N6        29.85S
ORANGE*          N/A     73  73 100 NW6       29.87F
LOUISA*        LGT RAIN  77  75  94 N6        29.83F
BUMPASS*       CLOUDY    75  75 100 CALM      29.83S
FARMVILLE*     CLOUDY    79  79 100 N5        29.82R
CREWE*         NOT AVBL
FORT PICKETT*  CLOUDY    82  79  92 SW7       29.81S
CHASE CITY*    CLOUDY    85  72  65 CALM      29.83R
CLARKSVILLE*   MOCLDY    82  73  74 S7        29.83S
SOUTH HILL*    MOCLDY    82  74  77 S8        29.88S
LAWRENCEVILLE* FAIR      83  76  79 SW7       29.81F
EMPORIA*       FAIR      82  73  74 S7        29.82F
$$

VAZ088>098-290400-
SOUTHEAST VIRGINIA

CITY           SKY/WX    TMP DP  RH WIND       PRES   REMARKS
NORFOLK        FAIR      87  77  72 S10       29.78F HX  99
VIRGINIA BEACH FAIR      91  77  63 S14       29.78F HX 104
NORFOLK NAVAL  FAIR      88  76  67 S6        29.80F HX  99
WEST POINT*    MOCLDY    78  72  81 E7        29.79S
SALUDA*        FAIR      79  76  90 SE7       29.78F
NEWPORT NEWS   MOCLDY    89  77  67 S7        29.78F HX 101
LANGLEY AFB    FAIR      86  79  79 SE6       29.78F HX 100
FORT EUSTIS    FAIR      88  77  69 SW8       29.77  HX 100
WILLIAMSBURG*  FAIR      90  77  66 S8        29.80S HX 102
HR EXEC AP*    FAIR      84  77  79 SW9       29.81F
FRANKLIN*      FAIR      85  73  66 SW9       29.80F
US460-WAKEFLD  FAIR      86  74  67 SW8       29.79F
$$

VAZ020-022-025-037-045-290400-
WEST CENTRAL AND SOUTHWEST VIRGINIA

CITY           SKY/WX    TMP DP  RH WIND       PRES   REMARKS
STAUNTON*      CLOUDY    71  69  92 N6        29.92S
WAYNESBORO*    CLOUDY    71  69  93 NW5       29.91F
HOT SPRINGS VA RAIN      68  68 100 W9G16     30.03
LYNCHBURG      CLOUDY    74  73  97 W7        29.91R THUNDER
DANVILLE       FAIR      82  70  66 SW9       29.85R
SOUTH BOSTON*  FAIR     N/A N/A N/A SW6       29.82F
MARTINSVILLE   CLOUDY    76  71  84 CALM      29.91R
ROANOKE        MOCLDY    72  71  97 NW3       29.93S
BLACKSBURG     RAIN      71  70  97 W3        30.01R
DUBLIN*        RAIN      72  69  91 SW6       29.99F
MARION*        CLOUDY    70  68  94 W7        30.03S
HILLSVILLE*    LGT RAIN  69  69  99 W3        30.00S
RICHLANDS*     LGT RAIN  67  67 100 W3        30.03R
WISE*          CLOUDY    68  68 100 CALM      30.03F
ABINGDON*      DRIZZLE   71  70  97 CALM      29.99S
$$

MDZ021>025-VAZ099-100-290400-
SOUTHERN MARYLAND AND THE DELMARVA PENINSULA

CITY           SKY/WX    TMP DP  RH WIND       PRES   REMARKS
PATUXENT RIVER TSTM      74  72  93 SE9       29.82F FOG
BAY BRIDGE APT LGT RAIN  75  75 100 N5        29.86R
LEONARDTOWN    CLOUDY    75  73  94 E6        29.83F
DOVER          LGT RAIN  75  75 100 NW9       29.85R
GEORGETOWN     LGT RAIN  75  74  96 W6        29.86R
EASTON         LGT RAIN  76  76 100 CALM      29.91R
CAMBRIDGE      CLOUDY    72  72 100 CALM      29.86R
SALISBURY      NOT AVBL
OCEAN CITY       N/A    N/A N/A N/A MISG      29.85R
WALLOPS ISLAND FAIR      78  76  93 E13       29.84R
ACCOMACK*      FAIR      73  72  94 SE6       29.81R
$$

NCZ012>017-030>032-290400-
NORTH CENTRAL AND EASTERN NORTH CAROLINA

CITY           SKY/WX    TMP DP  RH WIND       PRES   REMARKS
ROANOKE RAPIDS FAIR      81  72  74 S7        29.84S
RALEIGH        PTCLDY    85  71  63 SW14      29.86S
ELIZABETH CITY CLEAR     85  76  74 S12       29.82F
AHOSKIE*       CLEAR     81  74  78 CALM      29.83F
EDENTON*       CLEAR     87  75  66 SW13      29.85F HX  97
CURRITUCK*     CLEAR     85  79  84 S3        29.83F HX  97
KILL DEVIL HLS CLEAR     85  75  71 SW8       29.83F
MANTEO           N/A     85  79  81 SW17      29.85F HX  97
CAPE HATTERAS  CLEAR     83  78  85 SW14      29.89F
TARBORO*       FAIR      85  73  66 S5        29.86F
GOLDSBORO      CLEAR     86  73  66 S9        29.86S
WASHINGTON     CLEAR     84  73  68 SW12      29.87F
GREENVILLE     CLEAR     86  72  62 SW9       29.89S
NEW BERN       CLEAR     83  74  74 SW8       29.90S
WILMINGTON     CLEAR     83  75  77 SW12      29.92S
$$

VAZ048-290400-
ELSEWHERE

CITY           SKY/WX    TMP DP  RH WIND       PRES   REMARKS
HARRISBURG PA  CLOUDY    75  74  96 N3        29.87F
BALTIMORE      LGT RAIN  76  73  91 SE8       29.85F FOG
ANNAPOLIS      LGT RAIN  77  74  90 N5        29.85R
ANDREWS AFB    LGT RAIN  75  74  95 NE6       29.84F
PHILADELPHIA   LGT RAIN  76  72  87 N3        29.87F
GREENSBORO     PTCLDY    85  65  51 SW18      29.88R
ROCKY MOUNT    CLEAR     86  72  62 S13       29.85F
$$

VAZ100-290400-
MARINE

STATION/POSITION TIME  TEMP    WIND        PRES    WAVE   SWELL
                       AIR SEA DIR/SP/G            HT/PER HT/PER
                 (UTC) (F)     (DEG/KT/KT) (MB)    (FT/S) (FT/S)
BRANDYWINE LGT   0212   76                   N/A
CAPE MAY NJ      0200                      1008.9
LEWES DE         0200                      1009.8
OCEAN-CITY-INLET 0200                      1009.6
WACHAPREAGUE VA  0200                      1009.3
THOMAS POINT MD  0300   78 84   50/  7/  8 1011.7R
GOOSES REEF MD   0300   79 85  140/ 12     1010.7F   2/ 4
COVE POINT MD    0200                      1011.3
SOLOMONS ISLAND  0212   77 86                N/A
BISHOPS HEAD MD  0200                      1009.5
PINEY POINT MD   0230           10/  3/  4   N/A
POTOMAC MD       0300   77 85  360/ 14/ 17 1009.8R   1/ 3
CAMBRIDGE MD     0200                      1008.7
LEWISETTA VA     0200                      1008.9
RAPPAHANNOCK LGT 0200                      1009.5
STINGRAY PT      0300   83 87   70/ 14/ 17 1008.9F   2/ 3
YORK RVR RNG VA  0200                      1008.6
YORKTOWN VA      0200                      1008.6
JAMESTOWN VA     0300   87     190/  8/ 12   N/A
DOMINION TERM VA 0200                      1009.5
KIPTOPEKE VA     0212      77                N/A
CHES BAY BRIDGE  0200                      1009.4
CAPE HENRY VA    0212   81                   N/A
WILLOUBY STN VA  0212   88                   N/A
CAPE HENRY BUOY  0212      75                N/A     1/ 7
1ST LANDING BUOY 0300   80 78   80/  4/  8 1008.7F   0
CAPE CHARLES BUO 0226      76                N/A     1/ 4
OFFSHORE WE BUOY 0221      83                N/A     2/ 4
64NM E OF VA BCH 0250   84 81  200/ 14/ 16 1009.9F   2/ 4   2/ 8
DUCK PIER NC     0200                      1010.0
44100 DUCK FRF   0205      80                N/A     2/ 3
44056 DUCK FRF   0211      78                N/A     1/ 7
OREGON INLET NC  0200                      1011.5
HATTERAS NC      0200                      1012.2
DIAMOND SHLS NC  0250   86 85  240/ 19/ 23 1012.5R   4/ 4   2/ 7
CAPE LOOKOUT NC  0300   84     230/ 11/ 14 1012.7R
$$




USA.gov is the U.S. government's official web portal to all federal, state and local government web resources and services.